This is the latest recevied weather packets stored in our database for station/object KF7SOJ. If no packets are shown the sender has not sent any weather packets the latest 10 day(s).
| Time | Temp. | Humidity | Pressure | Rain* | Wind** | Luminosity | Snow |
|---|---|---|---|---|---|---|---|
| 1777914351 | 11.11° C | 49% | 931.1 hPa | 0 mm | - | 338 W/m² | - |
| 1777914049 | 11.11° C | 47% | 931.3 hPa | 0 mm | - | 342 W/m² | - |
| 1777913744 | 10.56° C | 49% | 931.3 hPa | 0 mm | - | 297 W/m² | - |
| 1777913442 | 10.56° C | 49% | 931.4 hPa | 0 mm | - | 292 W/m² | - |
| 1777913138 | 10.56° C | 49% | 931.1 hPa | 0 mm | - | 322 W/m² | - |
| 1777912835 | 11.11° C | 49% | 931.5 hPa | 0 mm | - | 352 W/m² | - |
| 1777912531 | 11.11° C | 49% | 931.4 hPa | 0 mm | - | 378 W/m² | - |
| 1777912228 | 10.56° C | 50% | 931.5 hPa | 0 mm | - | 355 W/m² | - |
| 1777911924 | 10.56° C | 50% | 931.5 hPa | 0 mm | - | 374 W/m² | - |
| 1777911620 | 11.11° C | 51% | 931.5 hPa | 0 mm | - | 446 W/m² | - |
| 1777911316 | 10.56° C | 50% | 931.5 hPa | 0 mm | - | 350 W/m² | - |
| 1777911015 | 10.56° C | 50% | 931.5 hPa | 0 mm | - | 341 W/m² | - |
| 1777910712 | 10° C | 50% | 931.6 hPa | 0 mm | - | 282 W/m² | - |
| 1777910408 | 10° C | 51% | 931.8 hPa | 0 mm | - | 241 W/m² | - |
| 1777910104 | 10° C | 50% | 931.8 hPa | 0 mm | - | 224 W/m² | - |
| 1777909802 | 10° C | 50% | 931.7 hPa | 0 mm | - | 184 W/m² | - |
| 1777909498 | 10° C | 51% | 931.7 hPa | 0 mm | - | 204 W/m² | - |
| 1777909196 | 10° C | 51% | 931.8 hPa | 0 mm | - | 225 W/m² | - |
| 1777908894 | 10° C | 50% | 931.7 hPa | 0 mm | - | 194 W/m² | - |
| 1777908591 | 9.44° C | 52% | 931.9 hPa | 0 mm | - | 168 W/m² | - |
| 1777908288 | 9.44° C | 51% | 931.8 hPa | 0 mm | - | 168 W/m² | - |
| 1777907984 | 9.44° C | 52% | 931.7 hPa | 0 mm | - | 143 W/m² | - |
| 1777907680 | 9.44° C | 53% | 931.8 hPa | 0 mm | - | 104 W/m² | - |
| 1777907375 | 9.44° C | 52% | 932 hPa | 0 mm | - | 98 W/m² | - |
| 1777907072 | 9.44° C | 53% | 932 hPa | 0 mm | - | 73 W/m² | - |
* Rain latest hour (hover to see other rain measurements)
** Current wind speed in m/s (hover to see current wind gust speed)